Location: Saluda
(35.2377°N, 82.3468°W)
Time: 13:31:09
(UTC+00:00)

SR - Pass Details

Date: 13 October 2022
Orbit: 577 x 875 km, 66.7° (Epoch: 28 November)

Event Time Altitude Azimuth Distance (km) Brightness Sun altitude
Rises 10:24:57 0° 311° (NW) 3,173 - -14.9°
Reaches altitude 10° 10:28:39 10° 285° (WNW) 2,170 - -14.1°
Maximum altitude 10:30:51 13° 258° (WSW) 1,924 - -13.7°
Drops below altitude 10° 10:32:59 10° 230° (SW) 2,078 - -13.2°
Exits shadow 10:33:33 - 224° (SW) 2,180 ? -13.1°
Sets 10:36:23 0° 203° (SSW) 2,918 ? -12.5°
